TITAN 3C TRANSTAGE DEB *, 34166

Orbit data source: Space-Track

TITAN 3C TRANSTAGE DEB *, 34166 is space debris in HEO originally from a launch on Tue, 21 Dec 1965 UTC launched from the Air Force Eastern Test Range (AFETR). Debris objects in space refer to the collection of defunct objects orbiting the Earth. Examples of debris include non-operational satellites, rocket bodies, and fragments generated from explosions, collisions, or faulty payload assembly.

Loading next visibility...
Identifier
34166, 1965-108CZ
Orbit
HEO
Country
Flag of USUS
Related business
Manufacturer
Unknown
Mission
Spacecraft
Bus & Motor
Unknown
Mass
Unknown
Launch date (UTC)
1965-12-21 (60 years ago)
Launch vehicle
Unknown
Launch site
Air Force Eastern Test Range (AFETR)
Object type
Payload
Rocket body
Debris
Shape & HBR
Unknown shape, 0.1 m
Radar Cross Section
Medium (>0.1 m² and <1 m²)

Expand to show TLE details & history
Last TLE update: 6 months ago

TLE from 6 months ago
0 TITAN 3C TRANSTAGE DEB *
1 34166U 65108CZ  25340.05826804  .00000484  00000-0  62718-3 0  9990
2 34166  25.1183 234.0689 7215617 221.9658  51.5176  2.31538461  6853
Epoch: 2025-12-06T01:23Z
TLE epoch observation values (Epoch: 2025-12-06T01:23:54.358Z)
Latitude
0.00024°
Longitude
138.10282°
Altitude
18,637.55 km
Speed
3.918 km/s
True Right ascension
15h 36m 40s
True Declination
0° 00' 01"
Sunlit
Object was in daylight at epoch
Visualization orbit readout
Latitude
Unknown
Longitude
Unknown
Altitude
Unknown
Speed
Unknown
Apparent Right ascension
Unknown
Apparent Declination
Unknown
Sunlit
N/A
Visualization observer readout
Local Sidereal Time
19:39:33
Azimuth
Unknown
Elevation
Unknown
Doppler factor
Unknown
Orbital elements
Apogee altitude
35,179.241 km
Perigee altitude
343.182 km
Semi-major axis
24,139.349 km
Eccentricity
0.72156
Inclination
25.1183°
RAAN
234.0689°
Arg. of periapsis
221.9658°
True anomaly
138.09566°
Mean anomaly
51.5176°
Eccentric anomaly
92.81032°
Mean motion
0.5787 °/min
Orbital period
622.08 mins
BSTAR
0.00062718
Loading maneuver chart data...
Computing Atmospheric mass density...

Documentation

Showing up to 5 results
|